User: anonymous   Login
Location: Dziadowski
(50.3833°N, 20.0333°E)
Time: 09:06:53
(UTC+00:00)
Language:

Cosmos 1943 Rocket - Orbit

View from above orbital plane
View from above orbital plane
View from above satellite
View from above satellite

Ground track
Ground track

The orbit is defined by the following mean orbital elements,

1 19120U          26064.47069534 +.00000000 +00000-0 -12085-4 0 00003
2 19120  71.0130  77.4694 0022514 340.5401  19.4862 14.19615722    03
Epoch (UTC): 05 March 2026 11:17:48
Eccentricity: 0.0022514
inclination: 71.0130°
perigee height: 810 km
apogee height: 843 km
right ascension of ascending node: 77.4694°
argument of perigee: 340.5401°
revolutions per day: 14.19615722
mean anomaly at epoch: 19.4862°

The dashed part of the orbit path shows where the satellite is in the earth's shadow,  

DLR